Regional Weather Roundup
Issued by NWS

Home | Current Version | Previous Version | Graphics & Text | Print | Product List | Glossary Off
Versions: 1 2 3 4 5 6 7 8 9 10 11 12 13 14 15 16 17 18 19 20 21 22 23 24 25 26 27 28 29 30 31 32 33 34 35 36 37 38 39 40 41 42 43 44 45 46 47 48 49 50

000
ASUS43 KFSD 240410
RWRSD

WEATHER ROUNDUP FOR SOUTH DAKOTA
NATIONAL WEATHER SERVICE SIOUX FALLS SD
1100 PM CDT SAT SEP 23 2017

NOTE: "FAIR" INDICATES FEW OR NO CLOUDS BELOW 12,000 FEET WITH NO
SIGNIFICANT WEATHER AND/OR OBSTRUCTIONS TO VISIBILITY.


SDZ001>005-009-010-012>017-240500-
NORTHWEST AND NORTH CENTRAL SOUTH DAKOTA

CITY           SKY/WX    TMP DP  RH WIND       PRES   REMARKS
BUFFALO          N/A     45  44  97 NE12      30.01S
FAITH            N/A     46  46 100 N16       30.00F
MOBRIDGE       CLOUDY    54  52  93 N8        29.96F FOG
$$

SDZ012>016-024>037-041>051-057-063-072>074-240500-
SOUTHWEST AND SOUTH CENTRAL SOUTH DAKOTA

CITY           SKY/WX    TMP DP  RH WIND       PRES   REMARKS
RAPID CTY ARPT LGT RAIN  45  45 100 N14       30.03F FOG
PIERRE         LGT RAIN  51  50  96 N9        29.94S
CUSTER         CLOUDY    40  38  93 N3        30.02S
ELLSWORTH AFB  LGT RAIN  45  45 100 N12       30.02F
PHILIP         LGT RAIN  50  50 100 N9        29.97S
PINE RIDGE     LGT RAIN  47  46  97 N7        29.98F FOG
SPEARFISH      CLOUDY    43  43 100 NE7       30.05F FOG
WINNER         CLOUDY    53  51  93 NW8       29.93F
$$

SDZ004>011-016>023-039-040-240500-
NORTHEAST SOUTH DAKOTA

CITY           SKY/WX    TMP DP  RH WIND       PRES   REMARKS
ABERDEEN       LGT RAIN  54  54 100 N8        29.93F
WATERTOWN      RAIN      58  58 100 E6        29.94F FOG
BROOKINGS      CLOUDY    55  54  96 NW9       29.99S
SISSETON         N/A     55  55 100 SW3       29.96S
$$

SDZ017-020-022-023-036>040-048>070-240500-
SOUTHEAST SOUTH DAKOTA

CITY           SKY/WX    TMP DP  RH WIND       PRES   REMARKS
SIOUX FALLS    CLOUDY    64  63  96 N17       29.93R
HURON          LGT RAIN  56  56 100 NW3       29.90F
CHAMBERLAIN    DRIZZLE   54  54 100 NW9       29.92F
MITCHELL       CLOUDY    59  58  96 E10       29.89F
YANKTON        CLOUDY    59  57  93 CALM      29.91S
$$

ABBREVIATIONS USED IN REMARKS
   TC - TEMPERATURE IN CELSIUS
  WCI - WIND CHILL INDEX
   HX - HEAT INDEX
  VSB - VISIBILITY





USA.gov is the U.S. government's official web portal to all federal, state and local government web resources and services.